Home   Weather   Douala   Past weeks

Flag for Cameroon Past Weather in Douala, Cameroon — Yesterday and Last 2 Weeks

Now
90 °F

Scattered clouds.


Feels Like: 103 °F
Forecast: 76 / 93 °F
Wind: 6 mph from West

Location: Douala Obs.

Current Time: Dec 6, 2016 at 3:23:03 pm

Latest Report: Dec 6, 2016 at 2:00 pm


Visibility: 5 mi

Pressure: 29.80 "Hg

Humidity: 67%

Dew Point: 77 °F

Location of DoualaLocation

Past Weather in Douala — Graph

°F

Douala Temperature Yesterday

Maximum temperature yesterday: 90 °F (at 2:00 pm)
Minimum temperature yesterday: 79 °F (at 12:00 am)
Average temperature yesterday: 83 °F

High & Low Weather Summary for the Past Weeks

 TemperatureHumidityPressure
High93 °F (Nov 23, 3:00 pm)100% (Nov 21, 9:00 pm)32.19 "Hg (Nov 21, 9:00 pm)
Low73 °F (Nov 21, 11:00 pm)59% (Nov 23, 1:00 pm)29.71 "Hg (Nov 25, 4:00 pm)
Average82 °F85%29.83 "Hg
* Reported Nov 21 2:00 pm — Dec 6 2:00 pm, Douala, Weather by CustomWeather, © 2016

Note: Actual official high and low records may vary slightly from our data, if they occured in-between our weather recording intervals... More about our weather records

Advertising

Douala Weather History for the Previous 24 Hours

Scroll right to see more
 ConditionsComfort  
Time TempWeatherWind HumidityBarometerVisibility
2:00 pm
Tue, Dec 6
90 °FScattered clouds.6 mph67%29.80 "Hg5 mi
1:00 pm90 °FPartly sunny.6 mph67%29.83 "Hg5 mi
12:00 pm88 °FPartly sunny.6 mph70%29.86 "Hg5 mi
11:00 am88 °FPartly sunny.5 mph70%29.86 "Hg5 mi
10:00 am82 °FThunderstorms. Partly sunny.5 mph84%29.89 "Hg4 mi
9:00 am81 °FThunderstorms. Partly sunny.2 mph89%29.89 "Hg4 mi
8:00 am79 °FThunderstorms. Partly sunny.2 mph94%29.89 "Hg4 mi
7:00 am77 °FThunderstorms. Partly sunny.No wind94%29.86 "Hg4 mi
6:00 am77 °FThunderstorms. Passing clouds.No wind94%29.83 "HgN/A
5:00 am77 °FThunderstorms. Passing clouds.2 mph94%29.83 "HgN/A
4:00 am75 °FThunderstorms. Partly cloudy.No wind100%29.83 "HgN/A
3:00 am77 °FThunderstorms. Partly cloudy.No wind89%29.83 "HgN/A
2:00 am81 °FThunderstorms. Partly cloudy.6 mph94%29.83 "HgN/A
1:00 am81 °FPassing clouds.No wind89%29.83 "HgN/A
12:00 am81 °FPartly cloudy.No wind89%29.83 "HgN/A
11:00 pm
Mon, Dec 5
81 °FPassing clouds.2 mph94%29.86 "HgN/A
10:00 pm81 °FPassing clouds.No wind94%29.86 "HgN/A
9:00 pm82 °FPassing clouds.2 mph84%29.86 "HgN/A
8:00 pm82 °FPassing clouds.2 mph84%29.83 "HgN/A
7:00 pm82 °FPassing clouds.2 mph84%29.80 "HgN/A
6:00 pm84 °FPassing clouds.8 mph79%29.80 "HgN/A
5:00 pm86 °FPassing clouds.8 mph75%29.77 "HgN/A
4:00 pm88 °FScattered clouds.8 mph66%29.77 "HgN/A
3:00 pm90 °FScattered clouds.8 mph67%29.77 "HgN/A
Weather by CustomWeather, © 2016

See weather overviewHow to use our weather pages